DECAYED

NOAA 16 DEB, 41426 (Decayed)

Orbit data source: Space-Track

NOAA 16 DEB, 41426 was space debris in SSO originally from a launch on Thu, 21 Sep 2000 UTC launched from the Air Force Western Test Range (AFWTR). Debris objects in space refer to the collection of defunct objects orbiting the Earth. Examples of debris include non-operational satellites, rocket bodies, and fragments generated from explosions, collisions, or faulty payload assembly.

Not visible in the next 10 days
Identifier
41426, 2000-055LF
Orbit
Decayed
Country
Flag of USUS
Related business
Manufacturer
Unknown
Mission
Decayed spacecraft
Bus & Motor
Unknown
Mass
Unknown
Launch date (UTC)
2000-09-21 (26 years ago)
Launch vehicle
Unknown
Launch site
Air Force Western Test Range (AFWTR)
Object type
Payload
Rocket body
Debris
Shape & HBR
Unknown shape, 0.1 m
Radar Cross Section
Medium (>0.1 m² and <1 m²)

Expand to show TLE details & history
Last TLE update: 4 months ago

TLE from 4 months ago
0 NOAA 16 DEB
1 41426U 00055LF  26129.45868601  .00275879  00000-0  10011-1 0  9997
2 41426  98.8663 312.7703 0009573 243.3679 116.6575 15.27070739532024
Epoch: 2026-05-09T11:00Z
TLE epoch observation values (Epoch: 2026-05-09T11:00:30.471Z)
Latitude
-0.00004°
Longitude
-79.63248°
Altitude
490.582 km
Speed
7.618 km/s
True Right ascension
20h 51m 04s
True Declination
0° 00' 00"
Sunlit
Object was in daylight at epoch
Visualization orbit readout
Latitude
Unknown
Longitude
Unknown
Altitude
Unknown
Speed
Unknown
Apparent Right ascension
Unknown
Apparent Declination
Unknown
Sunlit
N/A
Visualization observer readout
Local Sidereal Time
11:28:32
Azimuth
Unknown
Elevation
Unknown
Doppler factor
Unknown
Orbital elements
Apogee altitude
488.166 km
Perigee altitude
475.033 km
Semi-major axis
6,859.737 km
Eccentricity
0.00096
Inclination
98.8663°
RAAN
312.7703°
Arg. of periapsis
243.3679°
True anomaly
116.75549°
Mean anomaly
116.6575°
Eccentric anomaly
116.7065°
Mean motion
3.82016 °/min
Orbital period
94.24 mins
BSTAR
0.010011
Loading maneuver chart data...
Computing Atmospheric mass density...
Loading historical data...
Loading historical data...
Loading historical data...
Loading historical data...
Loading historical data...
Loading historical data...
Loading historical data...

Documentation

Showing up to 5 results
|